Location: Silverdale
(47.6506°N, 122.6941°W)
Time: 01:07:01
(UTC+00:00)

A-11 Canister half - Pass Details

Date: 10 October 2022
Orbit: 1524 x 1685 km, 47.3° (Epoch: 05 December)

Event Time Altitude Azimuth Distance (km) Brightness Sun altitude
Rises 05:15:47 0° 288° (WNW) 4,713 12.4 -36.4°
Reaches altitude 10° 05:19:52 10° 273° (W) 3,748 11.6 -37.0°
Maximum altitude 05:26:05 20° 231° (SW) 3,066 10.6 -37.8°
Enters shadow 05:28:14 18° 215° (SW) 3,168 10.5 -38.1°
